Location: Mohawk View
(42.7837°N, 73.7885°W)
Time: 07:44:23
(UTC+00:00)

Cosmos 1975 Rocket - Pass Details

Date: 17 June 2021
Orbit: 604 x 633 km, 82.5° (Epoch: 28 July)

Event Time Altitude Azimuth Distance (km) Brightness Sun altitude
Exits shadow 02:09:38 12° 184° (S) 1,799 5.0 -13.5°
Maximum altitude 02:13:35 83° 97° (E) 623 3.0 -14.0°
Drops below altitude 10° 02:17:59 10° 10° (N) 1,990 6.3 -14.5°
Sets 02:20:14 0° 9° (N) 2,905 7.2 -14.7°
